AI4ZL Weather Reports


Display with metric or nautical units.
time (UTC)temp
F
wind
direction
speed
MPH
gust
MPH
rain 1hr
in
rain 24hr
in
rain mn
in
humidity
%
barometer
mb
20260507203025 69 292 3.0 8.0 0.00 0.00 0.00 39 1017.0
20260507202029 69 346 2.0 6.0 0.00 0.00 0.00 40 1016.9
20260507201038 68 56 1.0 2.0 0.00 0.00 0.00 39 1017.1
20260507200043 67 289 2.0 4.0 0.00 0.00 0.00 42 1017.1
20260507195027 68 300 3.0 7.0 0.00 0.00 0.00 41 1017.1
20260507194038 69 299 1.0 2.0 0.00 0.00 0.00 39 1017.5
20260507193041 67 293 1.0 3.0 0.00 0.00 0.00 42 1017.5
20260507192025 65 290 2.0 10.0 0.00 0.00 0.00 43 1017.5
20260507191030 66 85 1.0 2.0 0.00 0.00 0.00 40 1017.4
20260507190018 67 306 2.0 6.0 0.00 0.00 0.00 42 1017.7
20260507185023 66 294 1.0 3.0 0.00 0.00 0.00 40 1017.7
20260507184049 65 345 2.0 8.0 0.00 0.00 0.00 42 1017.8
20260507183033 64 298 3.0 8.0 0.00 0.00 0.00 42 1017.8
20260507182021 66 310 1.0 6.0 0.00 0.00 0.00 42 1018.0
20260507181026 63 229 1.0 6.0 0.00 0.00 0.00 40 1018.0
20260507180031 64 336 4.0 8.0 0.00 0.00 0.00 41 1018.1
20260507175018 65 340 3.0 7.0 0.00 0.00 0.00 42 1018.3
20260507174024 64 162 1.0 7.0 0.00 0.00 0.00 43 1018.3
20260507173029 64 330 1.0 7.0 0.00 0.00 0.00 41 1018.3
20260507172016 64 332 2.0 4.0 0.00 0.00 0.00 42 1018.5
20260507171042 63 40 1.0 3.0 0.00 0.00 0.00 46 1018.6
20260507170027 64 313 1.0 4.0 0.00 0.00 0.00 43 1018.7
20260507165032 64 293 1.0 3.0 0.00 0.00 0.00 42 1018.9
20260507164019 64 313 1.0 3.0 0.00 0.00 0.00 42 1019.1
20260507163024 62 327 3.0 7.0 0.00 0.00 0.00 44 1019.1
20260507162029 64 216 1.0 2.0 0.00 0.00 0.00 45 1019.1
20260507161018 62 294 1.0 4.0 0.00 0.00 0.00 45 1019.0
20260507160022 63 18 1.0 4.0 0.00 0.00 0.00 46 1019.2
20260507155027 61 303 3.0 7.0 0.00 0.00 0.00 49 1019.1
20260507154032 62 305 1.0 4.0 0.00 0.00 0.00 48 1019.3
20260507153020 62 23 0.0 3.0 0.00 0.00 0.00 47 1019.2
20260507152025 60 289 2.0 3.0 0.00 0.00 0.00 50 1019.2
20260507151031 61 330 2.0 3.0 0.00 0.00 0.00 49 1019.0
20260507150018 62 318 1.0 2.0 0.00 0.00 0.00 51 1019.2
20260507145023 61 337 0.0 3.0 0.00 0.00 0.00 53 1019.3
20260507144028 59 51 1.0 2.0 0.00 0.00 0.00 56 1019.3
20260507143036 59 29 1.0 2.0 0.00 0.00 0.00 59 1019.4
20260507142021 59 83 0.0 1.0 0.00 0.00 0.00 59 1019.4
20260507141026 59 0.0 1.0 0.00 0.00 0.00 62 1019.2
20260507140031 58 73 1.0 3.0 0.00 0.00 0.00 64 1019.1
20260507135100 56 70 1.0 3.0 0.00 0.00 0.00 65 1019.3
20260507134024 56 57 1.0 4.0 0.00 0.00 0.00 67 1019.3
20260507133050 54 108 1.0 3.0 0.00 0.00 0.00 69 1019.1
20260507132037 55 100 1.0 3.0 0.00 0.00 0.00 68 1019.3
20260507131022 54 0.0 1.0 0.00 0.00 0.00 71 1019.2
20260507130048 54 62 0.0 1.0 0.00 0.00 0.00 72 1019.1
20260507125031 53 58 0.0 1.0 0.00 0.00 0.00 81 1019.1
20260507124040 50 0.0 1.0 0.00 0.00 0.00 95 1019.1
20260507123024 48 208 0.0 1.0 0.00 0.00 0.00 99 1019.1
20260507122031 46 0.0 0.0 0.00 0.00 0.00 99 1018.9
20260507121017 44 0.0 0.0 0.00 0.00 0.00 99 1018.7
20260507120022 44 0.0 0.0 0.00 0.00 0.00 99 1018.7
20260507115048 43 0.0 0.0 0.00 0.00 0.00 99 1018.4
20260507114016 42 0.0 0.0 0.00 0.00 0.00 99 1018.4
20260507113023 42 0.0 0.0 0.00 0.00 0.00 99 1018.3
20260507112025 42 0.0 0.0 0.00 0.00 0.00 99 1018.4
20260507111030 42 0.0 0.0 0.00 0.00 0.00 99 1018.4
20260507110035 42 0.0 0.0 0.00 0.00 0.00 99 1018.5
20260507105102 41 0.0 0.0 0.00 0.00 0.00 99 1018.4
20260507104045 42 0.0 0.0 0.00 0.00 0.00 99 1018.2
20260507103033 42 0.0 0.0 0.00 0.00 0.00 99 1018.2
20260507102038 42 0.0 0.0 0.00 0.00 0.00 99 1018.3
20260507101043 43 0.0 0.0 0.00 0.00 0.00 99 1018.3
20260507100032 43 0.0 0.0 0.00 0.00 0.00 99 1018.2
20260507095057 43 0.0 0.0 0.00 0.00 0.00 99 1018.2
20260507094041 43 0.0 0.0 0.00 0.00 0.00 99 1018.0
20260507093046 44 0.0 0.0 0.00 0.00 0.00 99 1018.1
20260507092034 44 0.0 0.0 0.00 0.00 0.00 99 1018.0
20260507091059 44 0.0 0.0 0.00 0.00 0.00 99 1018.1
20260507090027 44 0.0 0.0 0.00 0.01 0.00 99 1018.0
20260507085032 44 0.0 0.0 0.00 0.04 0.00 99 1017.9
20260507084021 44 0.0 0.0 0.00 0.04 0.00 99 1017.8
20260507083025 44 0.0 0.0 0.00 0.04 0.00 99 1017.4
20260507082030 45 0.0 0.0 0.00 0.05 0.00 99 1017.5
20260507081017 45 0.0 0.0 0.00 0.05 0.00 99 1017.5
20260507080023 45 0.0 0.0 0.00 0.05 0.00 99 1017.4
20260507075028 45 0.0 0.0 0.00 0.05 0.00 99 1017.4
20260507074033 45 0.0 0.0 0.00 0.05 0.00 98 1017.3
20260507073038 45 0.0 0.0 0.00 0.05 0.00 98 1017.3
20260507072026 46 0.0 0.0 0.00 0.05 0.00 98 1017.3
20260507071052 46 0.0 0.0 0.00 0.05 0.00 98 1017.4
20260507070018 46 0.0 0.0 0.00 0.05 0.00 98 1017.4
20260507065024 47 0.0 0.0 0.00 0.05 0.00 98 1017.4
20260507064028 47 0.0 0.0 0.00 0.05 0.00 98 1017.6
20260507063017 47 0.0 0.0 0.00 0.05 0.00 98 1017.6
20260507062021 47 0.0 0.0 0.00 0.13 0.00 97 1017.6
20260507061026 47 0.0 0.0 0.00 0.29 0.00 97 1017.7
20260507060032 47 0.0 0.0 0.00 0.29 0.00 97 1017.7
20260507055039 47 0.0 0.0 0.00 0.30 0.00 97 1017.6
20260507054024 48 0.0 0.0 0.00 0.31 0.00 97 1017.6
20260507053030 48 0.0 0.0 0.00 0.32 0.00 96 1017.5
20260507052017 49 0.0 0.0 0.00 0.32 0.00 96 1017.4
20260507051022 49 0.0 0.0 0.00 0.32 0.00 96 1017.4
20260507050027 49 0.0 0.0 0.00 0.32 0.00 95 1017.5
20260507045032 50 0.0 0.0 0.00 0.34 0.34 94 1017.5
20260507044020 50 0.0 0.0 0.00 0.34 0.34 94 1017.6
20260507043025 51 0.0 0.0 0.00 0.34 0.34 93 1017.7
20260507042030 51 0.0 0.0 0.00 0.34 0.34 92 1017.6
20260507041119 52 0.0 0.0 0.00 0.34 0.34 91 1017.3
20260507040023 52 0.0 0.0 0.00 0.34 0.34 89 1017.2
20260507035048 53 0.0 0.0 0.00 0.34 0.34 87 1017.3
20260507034016 53 0.0 0.0 0.00 0.34 0.34 84 1017.2
20260507033041 54 0.0 0.0 0.00 0.36 0.34 84 1017.1
20260507032046 54 331 0.0 1.0 0.00 0.39 0.34 86 1017.3
20260507031031 54 0.0 0.0 0.00 0.41 0.34 86 1017.5
20260507030020 53 0.0 0.0 0.00 0.42 0.34 86 1017.1
20260507025023 54 0.0 0.0 0.00 0.43 0.34 86 1016.7
20260507024029 54 0.0 0.0 0.00 0.43 0.34 86 1016.9
20260507023017 55 0.0 0.0 0.00 0.45 0.34 87 1017.2
20260507022022 54 0.0 0.0 0.00 0.45 0.34 86 1017.5
20260507021026 55 0.0 0.0 0.00 0.47 0.34 86 1017.8
20260507020031 54 330 0.0 1.0 0.00 0.47 0.34 84 1017.1
20260507015019 55 0.0 0.0 0.00 0.47 0.34 83 1017.0
20260507014044 55 0.0 0.0 0.00 0.49 0.34 83 1017.1
20260507013029 55 0.0 0.0 0.00 0.50 0.34 81 1016.7
20260507012017 56 0.0 0.0 0.00 0.50 0.34 79 1016.8
20260507011043 56 0.0 0.0 0.00 0.52 0.34 76 1017.0
20260507010027 57 0.0 0.0 0.00 0.52 0.34 72 1017.0
20260507005032 57 0.0 0.0 0.00 0.52 0.34 72 1016.9
20260507004021 58 77 0.0 1.0 0.00 0.53 0.34 71 1016.7
20260507003025 58 0.0 0.0 0.00 0.53 0.34 69 1016.4
20260507002030 58 346 0.0 1.0 0.00 0.54 0.34 68 1016.1
20260507001018 58 0.0 0.0 0.00 0.57 0.34 68 1015.8
20260507000023 59 201 0.0 2.0 0.00 0.57 0.34 69 1015.6
20260506235028 59 308 0.0 1.0 0.00 0.58 0.34 69 1015.5
20260506234033 60 2 0.0 1.0 0.00 0.59 0.34 69 1015.4
20260506233021 60 0.0 0.0 0.00 0.60 0.34 68 1015.2
20260506232026 60 0.0 0.0 0.00 0.61 0.34 66 1015.3
20260506231031 60 0.0 0.0 0.00 0.63 0.34 66 1015.4
20260506230019 61 0.0 1.0 0.00 0.66 0.34 65 1015.3
20260506225023 61 90 0.0 1.0 0.00 0.74 0.34 64 1015.7
20260506224028 62 0.0 1.0 0.00 0.78 0.34 62 1015.6
20260506223017 62 221 0.0 2.0 0.00 0.78 0.34 60 1015.6
20260506222022 63 38 0.0 1.0 0.00 0.78 0.34 61 1015.9
20260506221026 61 72 0.0 1.0 0.00 0.80 0.34 62 1015.8
20260506220032 61 0.0 0.0 0.00 0.80 0.34 64 1016.2
20260506215019 60 297 0.0 1.0 0.00 0.81 0.34 64 1016.3
20260506214044 60 0.0 0.0 0.00 0.83 0.34 64 1016.3
20260506213029 60 353 0.0 1.0 0.00 0.83 0.34 63 1016.1
20260506212017 60 297 0.0 1.0 0.00 0.84 0.34 64 1016.5
20260506211022 60 0.0 0.0 0.00 0.84 0.34 64 1016.7
20260506210028 59 0.0 0.0 0.00 0.84 0.34 64 1016.8
20260506205032 59 340 1.0 2.0 0.00 0.84 0.34 65 1016.6
20260506204021 59 323 0.0 1.0 0.00 0.85 0.34 66 1016.8